Location: Namasale
(1.5000°N, 32.6167°E)
Time: 19:25:48
(UTC+00:00)

Vanguard 1 Rocket - Pass Details

Date: 28 April 2021
Orbit: 652 x 4224 km, 34.3° (Epoch: 10 May)

Event Time Altitude Azimuth Distance (km) Brightness Sun altitude
Rises 20:15:17 0° 251° (WSW) 4,678 11.3 -62.3°
Enters shadow 20:16:28 - 246° (WSW) 4,504 11.1 -62.5°
Reaches altitude 10° 20:19:20 10° 233° (SW) 4,220 - -63.1°
Maximum altitude 20:27:13 19° 192° (SSW) 4,458 - -64.6°
Drops below altitude 10° 20:38:41 10° 153° (SSE) 6,323 - -66.8°
Sets 20:47:37 0° 138° (SE) 7,981 - -68.3°
